Location: Briarstone Lake
(43.1454°N, 93.2359°W)
Time: 03:50:30
(UTC+00:00)

RS-44 - Visible Passes

Search period start: 08 December 2025 00:00
Search period end: 18 December 2025 00:00
Orbit: 1175 x 1510 km, 82.5° (Epoch: 07 December)

Date Brightness Start Highest point End Pass type
(mag) Time Alt. Az. Time Alt. Az. Time Alt. Az.
08 Dec ? 08:07:41 11° NNE 08:07:41 11° NNE 08:07:58 10° NNE visible
08 Dec ? 10:00:18 13° N 10:00:18 13° N 10:01:11 10° N visible
09 Dec ? 08:31:33 12° N 08:31:33 12° N 08:31:55 10° N visible
09 Dec ? 10:24:09 11° NNW 10:24:09 11° NNW 10:24:23 10° NNW visible
10 Dec ? 08:55:23 11° N 08:55:23 11° N 08:55:42 10° N visible
11 Dec ? 09:19:12 10° N 09:19:12 10° N 09:19:19 10° N visible
